Time,TemperatureF,DewpointF,PressureIn,WindDirection,WindDirectionDegrees,WindSpeedMPH,WindSpeedGustMPH,Humidity,HourlyPrecipIn,Conditions,Clouds,dailyrainin,SolarRadiationWatts/m^2,SoftwareType,DateUTC
2013-10-23 00:01:00,36.4,33.5,29.84,SSW,196,3.0,4.0,89,0.00,,,0.00,0,Wunderground v.1.15,2013-10-23 04:01:00,
2013-10-23 00:02:00,36.4,33.5,29.84,West,265,3.0,4.0,89,0.00,,,0.00,0,Wunderground v.1.15,2013-10-23 04:02:00,
2013-10-23 00:03:00,36.4,33.5,29.84,SSW,201,3.0,4.0,89,0.00,,,0.00,0,Wunderground v.1.15,2013-10-23 04:03:00,
2013-10-23 00:04:00,36.4,33.5,29.84,SW,223,3.0,4.0,89,0.00,,,0.00,0,Wunderground v.1.15,2013-10-23 04:04:00,
2013-10-23 00:10:00,36.4,33.2,29.84,SSE,168,3.0,4.0,88,0.00,,,0.00,0,Wunderground v.1.15,2013-10-23 04:10:00,
2013-10-23 00:16:00,36.5,33.0,29.84,SSE,155,2.0,5.0,87,0.00,,,0.00,0,Wunderground v.1.15,2013-10-23 04:16:00,
2013-10-23 00:20:00,36.5,33.0,29.84,WSW,246,1.0,1.0,87,0.00,,,0.00,0,Wunderground v.1.15,2013-10-23 04:20:00,
2013-10-23 00:26:00,36.6,32.8,29.84,NW,315,1.0,1.0,86,0.00,,,0.00,0,Wunderground v.1.15,2013-10-23 04:26:00,
2013-10-23 00:31:00,36.5,32.7,29.85,WSW,248,0.0,1.0,86,0.00,,,0.00,0,Wunderground v.1.15,2013-10-23 04:31:00,
2013-10-23 00:37:00,36.5,32.7,29.85,SSW,213,1.0,9.0,86,0.00,,,0.00,0,Wunderground v.1.15,2013-10-23 04:37:00,
2013-10-23 00:42:00,36.5,32.1,29.85,South,178,3.0,6.0,84,0.00,,,0.00,0,Wunderground v.1.15,2013-10-23 04:42:00,
2013-10-23 00:48:00,36.6,31.6,29.85,SSW,194,4.0,6.0,82,0.00,,,0.00,0,Wunderground v.1.15,2013-10-23 04:48:00,
2013-10-23 00:54:00,36.5,30.9,29.85,South,175,4.0,6.0,80,0.00,,,0.00,0,Wunderground v.1.15,2013-10-23 04:54:00,
2013-10-23 00:59:00,36.5,30.6,29.85,South,186,5.0,8.0,79,0.00,,,0.00,0,Wunderground v.1.15,2013-10-23 04:59:00,
2013-10-23 01:05:00,36.2,30.0,29.85,SW,233,6.0,10.0,78,0.00,,,0.00,0,Wunderground v.1.15,2013-10-23 05:05:00,
2013-10-23 01:10:00,36.1,30.2,29.85,SW,219,4.0,4.0,79,0.00,,,0.00,0,Wunderground v.1.15,2013-10-23 05:10:00,
2013-10-23 01:16:00,35.9,29.7,29.85,South,190,1.0,4.0,78,0.00,,,0.00,0,Wunderground v.1.15,2013-10-23 05:16:00,
2013-10-23 01:21:00,35.8,29.6,29.85,WNW,295,1.0,1.0,78,0.00,,,0.00,0,Wunderground v.1.15,2013-10-23 05:21:00,
2013-10-23 01:27:00,35.8,29.9,29.85,WSW,240,1.0,1.0,79,0.00,,,0.00,0,Wunderground v.1.15,2013-10-23 05:27:00,
2013-10-23 01:33:00,35.8,29.9,29.85,WSW,251,0.0,1.0,79,0.00,,,0.00,0,Wunderground v.1.15,2013-10-23 05:33:00,
2013-10-23 01:38:00,35.8,29.9,29.84,South,183,1.0,7.0,79,0.00,,,0.00,0,Wunderground v.1.15,2013-10-23 05:38:00,
2013-10-23 01:44:00,35.6,29.4,29.84,SSW,207,1.0,1.0,78,0.00,,,0.00,0,Wunderground v.1.15,2013-10-23 05:44:00,
2013-10-23 01:50:00,35.4,29.2,29.84,WSW,241,0.0,1.0,78,0.00,,,0.00,0,Wunderground v.1.15,2013-10-23 05:50:00,
2013-10-23 01:56:00,35.3,29.1,29.84,West,263,1.0,2.0,78,0.00,,,0.00,0,Wunderground v.1.15,2013-10-23 05:56:00,
2013-10-23 02:02:00,35.2,29.0,29.85,SSW,213,0.0,1.0,78,0.00,,,0.00,0,Wunderground v.1.15,2013-10-23 06:02:00,
2013-10-23 02:07:00,35.0,28.8,29.85,East,96,0.0,1.0,78,0.00,,,0.00,0,Wunderground v.1.15,2013-10-23 06:07:00,
2013-10-23 02:13:00,35.0,28.5,29.85,NNW,329,0.0,2.0,77,0.00,,,0.00,0,Wunderground v.1.15,2013-10-23 06:13:00,
2013-10-23 02:19:00,35.0,28.5,29.85,WSW,242,1.0,3.0,77,0.00,,,0.00,0,Wunderground v.1.15,2013-10-23 06:19:00,
2013-10-23 02:24:00,34.9,28.4,29.85,SW,229,1.0,1.0,77,0.00,,,0.00,0,Wunderground v.1.15,2013-10-23 06:24:00,
2013-10-23 02:30:00,34.7,28.5,29.85,NNW,331,0.0,1.0,78,0.00,,,0.00,0,Wunderground v.1.15,2013-10-23 06:30:00,
2013-10-23 02:36:00,34.6,28.4,29.85,NW,308,0.0,1.0,78,0.00,,,0.00,0,Wunderground v.1.15,2013-10-23 06:36:00,
2013-10-23 02:42:00,34.4,28.2,29.86,SSW,203,0.0,1.0,78,0.00,,,0.00,0,Wunderground v.1.15,2013-10-23 06:42:00,
2013-10-23 02:47:00,34.3,27.8,29.86,NW,309,0.0,1.0,77,0.00,,,0.00,0,Wunderground v.1.15,2013-10-23 06:47:00,
2013-10-23 02:53:00,34.1,27.6,29.86,SW,232,0.0,2.0,77,0.00,,,0.00,0,Wunderground v.1.15,2013-10-23 06:53:00,
2013-10-23 02:59:00,34.0,27.2,29.86,WNW,294,0.0,3.0,76,0.00,,,0.00,0,Wunderground v.1.15,2013-10-23 06:59:00,
2013-10-23 03:05:00,33.8,26.7,29.86,SW,219,0.0,2.0,75,0.00,,,0.00,0,Wunderground v.1.15,2013-10-23 07:05:00,
2013-10-23 03:11:00,33.7,26.6,29.86,SSW,213,0.0,1.0,75,0.00,,,0.00,0,Wunderground v.1.15,2013-10-23 07:11:00,
2013-10-23 03:17:00,33.5,26.4,29.85,SW,234,0.0,1.0,75,0.00,,,0.00,0,Wunderground v.1.15,2013-10-23 07:17:00,
2013-10-23 03:23:00,33.4,26.3,29.85,NW,307,0.0,1.0,75,0.00,,,0.00,0,Wunderground v.1.15,2013-10-23 07:23:00,
2013-10-23 03:29:00,33.3,26.2,29.84,NW,307,0.0,1.0,75,0.00,,,0.00,0,Wunderground v.1.15,2013-10-23 07:29:00,
2013-10-23 03:35:00,33.0,25.6,29.85,NW,307,0.0,1.0,74,0.00,,,0.00,0,Wunderground v.1.15,2013-10-23 07:35:00,
2013-10-23 03:41:00,32.8,25.7,29.84,NW,307,0.0,1.0,75,0.00,,,0.00,0,Wunderground v.1.15,2013-10-23 07:41:00,
2013-10-23 03:46:00,32.6,25.6,29.84,NW,307,0.0,1.0,75,0.00,,,0.00,0,Wunderground v.1.15,2013-10-23 07:46:00,
2013-10-23 03:52:00,32.4,25.7,29.84,NW,307,0.0,1.0,76,0.00,,,0.00,0,Wunderground v.1.15,2013-10-23 07:52:00,
2013-10-23 03:58:00,32.1,25.7,29.84,NW,307,0.0,1.0,77,0.00,,,0.00,0,Wunderground v.1.15,2013-10-23 07:58:00,
2013-10-23 04:04:00,31.9,25.5,29.84,NW,307,0.0,1.0,77,0.00,,,0.00,0,Wunderground v.1.15,2013-10-23 08:04:00,
2013-10-23 04:09:00,31.8,25.4,29.84,NW,307,0.0,1.0,77,0.00,,,0.00,0,Wunderground v.1.15,2013-10-23 08:09:00,
2013-10-23 04:15:00,31.7,25.3,29.84,NW,307,0.0,1.0,77,0.00,,,0.00,0,Wunderground v.1.15,2013-10-23 08:15:00,
2013-10-23 04:21:00,31.6,25.2,29.84,NW,307,0.0,1.0,77,0.00,,,0.00,0,Wunderground v.1.15,2013-10-23 08:21:00,
2013-10-23 04:27:00,31.5,25.4,29.84,NW,307,0.0,1.0,78,0.00,,,0.00,0,Wunderground v.1.15,2013-10-23 08:27:00,
2013-10-23 04:32:00,31.4,25.3,29.84,NW,307,0.0,1.0,78,0.00,,,0.00,0,Wunderground v.1.15,2013-10-23 08:32:00,
2013-10-23 04:38:00,31.4,25.3,29.84,NW,307,0.0,1.0,78,0.00,,,0.00,0,Wunderground v.1.15,2013-10-23 08:38:00,
2013-10-23 04:44:00,31.3,25.2,29.84,NW,307,0.0,1.0,78,0.00,,,0.00,0,Wunderground v.1.15,2013-10-23 08:44:00,
2013-10-23 04:50:00,31.1,25.0,29.83,NW,307,0.0,1.0,78,0.00,,,0.00,0,Wunderground v.1.15,2013-10-23 08:50:00,
2013-10-23 04:55:00,31.1,24.7,29.83,NW,307,0.0,1.0,77,0.00,,,0.00,0,Wunderground v.1.15,2013-10-23 08:55:00,
2013-10-23 05:01:00,31.0,24.6,29.84,NW,307,0.0,1.0,77,0.00,,,0.00,0,Wunderground v.1.15,2013-10-23 09:01:00,
2013-10-23 05:07:00,30.9,24.8,29.83,NW,307,0.0,1.0,78,0.00,,,0.00,0,Wunderground v.1.15,2013-10-23 09:07:00,
2013-10-23 05:12:00,30.7,25.0,29.83,NW,307,0.0,1.0,79,0.00,,,0.00,0,Wunderground v.1.15,2013-10-23 09:12:00,
2013-10-23 05:18:00,30.4,25.0,29.83,NW,307,0.0,1.0,80,0.00,,,0.00,0,Wunderground v.1.15,2013-10-23 09:18:00,
2013-10-23 05:23:00,30.2,25.1,29.83,NW,307,0.0,1.0,81,0.00,,,0.00,0,Wunderground v.1.15,2013-10-23 09:23:00,
2013-10-23 05:29:00,29.9,25.1,29.83,NW,307,0.0,1.0,82,0.00,,,0.00,0,Wunderground v.1.15,2013-10-23 09:29:00,
2013-10-23 05:34:00,29.8,25.3,29.82,NW,307,0.0,1.0,83,0.00,,,0.00,0,Wunderground v.1.15,2013-10-23 09:34:00,
2013-10-23 05:40:00,29.6,25.1,29.82,NW,307,0.0,1.0,83,0.00,,,0.00,0,Wunderground v.1.15,2013-10-23 09:40:00,
2013-10-23 05:45:00,29.5,25.0,29.82,NW,307,0.0,1.0,83,0.00,,,0.00,0,Wunderground v.1.15,2013-10-23 09:45:00,
2013-10-23 05:51:00,29.4,25.2,29.82,NW,307,0.0,1.0,84,0.00,,,0.00,0,Wunderground v.1.15,2013-10-23 09:51:00,
2013-10-23 05:57:00,29.4,25.2,29.83,NW,307,0.0,1.0,84,0.00,,,0.00,0,Wunderground v.1.15,2013-10-23 09:57:00,
2013-10-23 06:02:00,29.4,25.2,29.83,NW,307,0.0,1.0,84,0.00,,,0.00,0,Wunderground v.1.15,2013-10-23 10:02:00,
2013-10-23 06:08:00,29.4,25.2,29.83,NW,307,0.0,1.0,84,0.00,,,0.00,0,Wunderground v.1.15,2013-10-23 10:08:00,
2013-10-23 06:14:00,29.4,25.4,29.83,NW,307,0.0,1.0,85,0.00,,,0.00,0,Wunderground v.1.15,2013-10-23 10:14:00,
2013-10-23 06:19:00,29.5,25.8,29.83,NW,307,0.0,1.0,86,0.00,,,0.00,0,Wunderground v.1.15,2013-10-23 10:19:00,
2013-10-23 06:25:00,29.5,25.8,29.82,NW,307,0.0,1.0,86,0.00,,,0.00,0,Wunderground v.1.15,2013-10-23 10:25:00,
2013-10-23 06:31:00,29.6,25.9,29.82,NW,307,0.0,1.0,86,0.00,,,0.00,0,Wunderground v.1.15,2013-10-23 10:31:00,
2013-10-23 06:36:00,29.7,25.7,29.82,NW,307,0.0,1.0,85,0.00,,,0.00,0,Wunderground v.1.15,2013-10-23 10:36:00,
2013-10-23 06:42:00,29.9,25.9,29.83,NW,307,0.0,1.0,85,0.00,,,0.00,0,Wunderground v.1.15,2013-10-23 10:42:00,
2013-10-23 06:48:00,30.2,26.2,29.82,NW,307,0.0,1.0,85,0.00,,,0.00,0,Wunderground v.1.15,2013-10-23 10:48:00,
2013-10-23 06:54:00,30.5,26.8,29.82,NW,307,0.0,1.0,86,0.00,,,0.00,0,Wunderground v.1.15,2013-10-23 10:54:00,
2013-10-23 07:00:00,30.8,27.4,29.82,NW,307,0.0,1.0,87,0.00,,,0.00,0,Wunderground v.1.15,2013-10-23 11:00:00,
2013-10-23 07:06:00,31.0,27.6,29.83,NW,307,0.0,1.0,87,0.00,,,0.00,0,Wunderground v.1.15,2013-10-23 11:06:00,
2013-10-23 07:12:00,31.2,28.1,29.82,NW,307,0.0,1.0,88,0.00,,,0.00,0,Wunderground v.1.15,2013-10-23 11:12:00,
2013-10-23 07:17:00,31.4,28.3,29.83,NW,307,0.0,1.0,88,0.00,,,0.00,0,Wunderground v.1.15,2013-10-23 11:17:00,
2013-10-23 07:23:00,31.5,28.4,29.83,NW,307,0.0,1.0,88,0.00,,,0.00,0,Wunderground v.1.15,2013-10-23 11:23:00,
2013-10-23 07:29:00,31.5,28.1,29.82,NW,307,0.0,1.0,87,0.00,,,0.00,0,Wunderground v.1.15,2013-10-23 11:29:00,
2013-10-23 07:35:00,31.4,28.0,29.83,NW,307,0.0,1.0,87,0.00,,,0.00,0,Wunderground v.1.15,2013-10-23 11:35:00,
2013-10-23 07:41:00,31.3,27.9,29.82,NW,307,0.0,1.0,87,0.00,,,0.00,0,Wunderground v.1.15,2013-10-23 11:41:00,
2013-10-23 07:46:00,31.3,28.2,29.82,NW,307,0.0,1.0,88,0.00,,,0.00,0,Wunderground v.1.15,2013-10-23 11:46:00,
2013-10-23 07:52:00,31.4,28.5,29.82,NW,307,0.0,1.0,89,0.00,,,0.00,0,Wunderground v.1.15,2013-10-23 11:52:00,
2013-10-23 07:58:00,31.3,28.4,29.82,NW,307,0.0,1.0,89,0.00,,,0.00,0,Wunderground v.1.15,2013-10-23 11:58:00,
2013-10-23 08:04:00,31.3,28.7,29.82,NW,307,0.0,1.0,90,0.00,,,0.00,0,Wunderground v.1.15,2013-10-23 12:04:00,
2013-10-23 08:10:00,31.3,28.7,29.82,NW,307,0.0,1.0,90,0.00,,,0.00,0,Wunderground v.1.15,2013-10-23 12:10:00,
2013-10-23 08:15:00,31.2,28.9,29.81,NW,307,0.0,1.0,91,0.00,,,0.00,0,Wunderground v.1.15,2013-10-23 12:15:00,
2013-10-23 08:21:00,31.2,28.9,29.82,NW,307,0.0,1.0,91,0.00,,,0.00,0,Wunderground v.1.15,2013-10-23 12:21:00,
2013-10-23 08:27:00,31.2,28.9,29.83,NW,307,0.0,1.0,91,0.00,,,0.00,0,Wunderground v.1.15,2013-10-23 12:27:00,
2013-10-23 08:33:00,31.2,28.9,29.82,NW,307,0.0,1.0,91,0.00,,,0.00,0,Wunderground v.1.15,2013-10-23 12:33:00,
2013-10-23 08:38:00,31.2,29.1,29.82,NW,307,0.0,1.0,92,0.00,,,0.00,0,Wunderground v.1.15,2013-10-23 12:38:00,
2013-10-23 08:44:00,31.2,29.1,29.82,NW,307,0.0,1.0,92,0.00,,,0.00,0,Wunderground v.1.15,2013-10-23 12:44:00,
2013-10-23 08:50:00,31.3,29.2,29.82,NW,307,0.0,1.0,92,0.00,,,0.00,0,Wunderground v.1.15,2013-10-23 12:50:00,
2013-10-23 08:55:00,31.3,29.5,29.82,NW,307,0.0,1.0,93,0.00,,,0.00,0,Wunderground v.1.15,2013-10-23 12:55:00,
2013-10-23 09:01:00,30.9,28.9,29.82,NW,307,0.0,1.0,92,0.00,,,0.00,5,Wunderground v.1.15,2013-10-23 13:01:00,
2013-10-23 09:07:00,30.6,28.6,29.82,NW,307,0.0,1.0,92,0.00,,,0.00,9,Wunderground v.1.15,2013-10-23 13:07:00,
2013-10-23 09:13:00,30.6,28.8,29.82,NW,307,0.0,1.0,93,0.00,,,0.00,16,Wunderground v.1.15,2013-10-23 13:13:00,
2013-10-23 09:19:00,30.6,28.8,29.82,NW,307,0.0,1.0,93,0.00,,,0.00,12,Wunderground v.1.15,2013-10-23 13:19:00,
2013-10-23 09:24:00,30.6,28.8,29.82,NW,307,0.0,1.0,93,0.00,,,0.00,7,Wunderground v.1.15,2013-10-23 13:24:00,
2013-10-23 09:30:00,30.7,28.9,29.82,NW,307,0.0,1.0,93,0.00,,,0.00,5,Wunderground v.1.15,2013-10-23 13:30:00,
2013-10-23 09:35:00,30.7,29.2,29.83,NW,307,0.0,1.0,94,0.00,,,0.00,0,Wunderground v.1.15,2013-10-23 13:35:00,
2013-10-23 09:41:00,30.8,29.3,29.83,NW,307,0.0,1.0,94,0.00,,,0.00,0,Wunderground v.1.15,2013-10-23 13:41:00,
2013-10-23 09:47:00,30.7,29.2,29.82,NW,307,0.0,1.0,94,0.00,,,0.00,5,Wunderground v.1.15,2013-10-23 13:47:00,
2013-10-23 09:52:00,30.7,29.2,29.83,NW,307,0.0,1.0,94,0.00,,,0.00,0,Wunderground v.1.15,2013-10-23 13:52:00,
2013-10-23 09:58:00,30.7,29.2,29.82,NW,309,0.0,1.0,94,0.00,,,0.00,0,Wunderground v.1.15,2013-10-23 13:58:00,
2013-10-23 10:04:00,30.6,29.1,29.82,North,360,0.0,1.0,94,0.00,,,0.00,5,Wunderground v.1.15,2013-10-23 14:04:00,
2013-10-23 10:09:00,30.6,29.1,29.82,North,360,0.0,1.0,94,0.00,,,0.00,7,Wunderground v.1.15,2013-10-23 14:09:00,
2013-10-23 10:15:00,30.7,29.2,29.82,North,360,0.0,1.0,94,0.00,,,0.00,14,Wunderground v.1.15,2013-10-23 14:15:00,
2013-10-23 10:20:00,30.9,29.6,29.81,North,360,0.0,1.0,95,0.00,,,0.00,16,Wunderground v.1.15,2013-10-23 14:20:00,
2013-10-23 10:26:00,31.3,30.0,29.81,North,360,0.0,1.0,95,0.00,,,0.00,12,Wunderground v.1.15,2013-10-23 14:26:00,
2013-10-23 10:32:00,31.6,30.3,29.82,North,360,0.0,1.0,95,0.00,,,0.00,9,Wunderground v.1.15,2013-10-23 14:32:00,
2013-10-23 10:37:00,31.9,30.6,29.81,North,360,0.0,1.0,95,0.00,,,0.00,12,Wunderground v.1.15,2013-10-23 14:37:00,
2013-10-23 10:43:00,32.2,30.9,29.81,North,360,0.0,1.0,95,0.00,,,0.00,11,Wunderground v.1.15,2013-10-23 14:43:00,
2013-10-23 10:48:00,32.5,31.5,29.81,North,360,0.0,1.0,96,0.00,,,0.00,16,Wunderground v.1.15,2013-10-23 14:48:00,
2013-10-23 10:54:00,32.8,31.8,29.81,North,350,0.0,1.0,96,0.00,,,0.00,32,Wunderground v.1.15,2013-10-23 14:54:00,
2013-10-23 11:00:00,33.0,32.0,29.81,NNW,337,0.0,1.0,96,0.00,,,0.00,14,Wunderground v.1.15,2013-10-23 15:00:00,
2013-10-23 11:05:00,33.2,32.2,29.81,NNW,337,0.0,1.0,96,0.00,,,0.00,16,Wunderground v.1.15,2013-10-23 15:05:00,
2013-10-23 11:11:00,33.3,32.3,29.81,NNW,337,0.0,1.0,96,0.00,,,0.00,14,Wunderground v.1.15,2013-10-23 15:11:00,
2013-10-23 11:17:00,33.4,32.4,29.81,NNW,337,0.0,1.0,96,0.00,,,0.00,18,Wunderground v.1.15,2013-10-23 15:17:00,
2013-10-23 11:22:00,33.5,32.5,29.81,NNW,337,0.0,1.0,96,0.00,,,0.00,18,Wunderground v.1.15,2013-10-23 15:22:00,
2013-10-23 11:28:00,33.7,32.7,29.81,NNW,337,0.0,1.0,96,0.00,,,0.00,28,Wunderground v.1.15,2013-10-23 15:28:00,
2013-10-23 11:33:00,33.9,32.9,29.81,NNW,337,0.0,1.0,96,0.00,,,0.00,26,Wunderground v.1.15,2013-10-23 15:33:00,
2013-10-23 11:39:00,34.2,33.2,29.81,NNW,337,0.0,1.0,96,0.00,,,0.00,37,Wunderground v.1.15,2013-10-23 15:39:00,
2013-10-23 11:44:00,34.5,33.5,29.81,NNW,337,0.0,1.0,96,0.00,,,0.00,19,Wunderground v.1.15,2013-10-23 15:44:00,
2013-10-23 11:50:00,34.6,33.6,29.81,NNW,337,0.0,1.0,96,0.00,,,0.00,23,Wunderground v.1.15,2013-10-23 15:50:00,
2013-10-23 11:56:00,34.6,33.6,29.81,NNW,337,0.0,1.0,96,0.00,,,0.00,28,Wunderground v.1.15,2013-10-23 15:56:00,
2013-10-23 12:01:00,34.6,33.6,29.81,NNW,337,0.0,1.0,96,0.00,,,0.00,62,Wunderground v.1.15,2013-10-23 16:01:00,
2013-10-23 12:07:00,34.7,33.7,29.81,NNW,337,0.0,1.0,96,0.00,,,0.00,37,Wunderground v.1.15,2013-10-23 16:07:00,
2013-10-23 12:12:00,34.8,33.8,29.81,NNW,337,0.0,1.0,96,0.00,,,0.00,40,Wunderground v.1.15,2013-10-23 16:12:00,
2013-10-23 12:18:00,34.8,33.8,29.81,NNW,337,0.0,1.0,96,0.00,,,0.00,35,Wunderground v.1.15,2013-10-23 16:18:00,
2013-10-23 12:23:00,34.8,33.8,29.81,NNW,337,0.0,1.0,96,0.00,,,0.00,19,Wunderground v.1.15,2013-10-23 16:23:00,
2013-10-23 12:29:00,34.8,33.8,29.81,NNW,337,0.0,1.0,96,0.00,,,0.00,16,Wunderground v.1.15,2013-10-23 16:29:00,
2013-10-23 12:35:00,34.7,33.7,29.81,NNW,337,0.0,1.0,96,0.00,,,0.00,16,Wunderground v.1.15,2013-10-23 16:35:00,
2013-10-23 12:40:00,34.6,33.6,29.81,NNW,337,0.0,1.0,96,0.00,,,0.00,11,Wunderground v.1.15,2013-10-23 16:40:00,
2013-10-23 12:46:00,34.5,33.2,29.81,NW,304,0.0,1.0,95,0.00,,,0.00,7,Wunderground v.1.15,2013-10-23 16:46:00,
2013-10-23 12:52:00,34.4,33.4,29.81,NW,304,0.0,1.0,96,0.00,,,0.00,7,Wunderground v.1.15,2013-10-23 16:52:00,
2013-10-23 12:57:00,34.3,33.3,29.80,NW,304,0.0,1.0,96,0.00,,,0.00,33,Wunderground v.1.15,2013-10-23 16:57:00,
2013-10-23 13:03:00,34.3,33.3,29.80,SSW,199,0.0,3.0,96,0.00,,,0.00,30,Wunderground v.1.15,2013-10-23 17:03:00,
2013-10-23 13:09:00,34.3,33.3,29.80,South,173,2.0,6.0,96,0.00,,,0.00,12,Wunderground v.1.15,2013-10-23 17:09:00,
2013-10-23 13:15:00,34.2,33.2,29.80,South,176,4.0,5.0,96,0.00,,,0.00,9,Wunderground v.1.15,2013-10-23 17:15:00,
2013-10-23 13:21:00,34.0,32.7,29.80,South,176,1.0,2.0,95,0.00,,,0.00,16,Wunderground v.1.15,2013-10-23 17:21:00,
2013-10-23 13:27:00,33.9,32.9,29.80,South,176,1.0,2.0,96,0.00,,,0.00,26,Wunderground v.1.15,2013-10-23 17:27:00,
2013-10-23 13:32:00,33.9,32.9,29.79,South,176,0.0,1.0,96,0.00,,,0.01,62,Wunderground v.1.15,2013-10-23 17:32:00,
2013-10-23 13:38:00,34.1,33.1,29.79,South,176,0.0,2.0,96,0.08,,,0.02,107,Wunderground v.1.15,2013-10-23 17:38:00,
2013-10-23 13:43:00,34.4,33.4,29.79,South,186,0.0,3.0,96,0.08,,,0.02,104,Wunderground v.1.15,2013-10-23 17:43:00,
2013-10-23 13:49:00,35.0,34.2,29.78,South,176,2.0,6.0,97,0.05,,,0.02,123,Wunderground v.1.15,2013-10-23 17:49:00,
2013-10-23 13:54:00,35.6,34.8,29.78,South,181,2.0,4.0,97,0.05,,,0.03,188,Wunderground v.1.15,2013-10-23 17:54:00,
2013-10-23 14:00:00,36.2,35.4,29.78,SSW,200,2.0,4.0,97,0.10,,,0.04,229,Wunderground v.1.15,2013-10-23 18:00:00,
2013-10-23 14:05:00,36.8,36.0,29.78,South,175,4.0,9.0,97,0.06,,,0.05,139,Wunderground v.1.15,2013-10-23 18:05:00,
2013-10-23 14:11:00,36.9,36.1,29.80,SSW,197,7.0,8.0,97,0.13,,,0.06,18,Wunderground v.1.15,2013-10-23 18:11:00,
2013-10-23 14:17:00,36.1,35.1,29.79,South,179,8.0,14.0,96,0.07,,,0.06,25,Wunderground v.1.15,2013-10-23 18:17:00,
2013-10-23 14:22:00,35.3,34.3,29.79,South,186,8.0,8.0,96,0.05,,,0.07,81,Wunderground v.1.15,2013-10-23 18:22:00,
2013-10-23 14:28:00,35.0,33.7,29.79,SSW,209,8.0,13.0,95,0.05,,,0.07,90,Wunderground v.1.15,2013-10-23 18:28:00,
2013-10-23 14:34:00,35.1,33.8,29.79,SW,219,5.0,8.0,95,0.07,,,0.08,63,Wunderground v.1.15,2013-10-23 18:34:00,
2013-10-23 14:40:00,35.5,34.5,29.79,SSE,163,1.0,2.0,96,0.05,,,0.08,35,Wunderground v.1.15,2013-10-23 18:40:00,
2013-10-23 14:46:00,35.8,34.8,29.78,SW,226,2.0,5.0,96,0.00,,,0.08,54,Wunderground v.1.15,2013-10-23 18:46:00,
2013-10-23 14:52:00,36.3,35.3,29.78,SSE,159,3.0,8.0,96,0.00,,,0.08,70,Wunderground v.1.15,2013-10-23 18:52:00,
2013-10-23 14:58:00,36.6,35.3,29.78,South,175,4.0,8.0,95,0.00,,,0.09,56,Wunderground v.1.15,2013-10-23 18:58:00,
2013-10-23 15:03:00,36.9,35.6,29.79,South,175,5.0,10.0,95,0.00,,,0.09,46,Wunderground v.1.15,2013-10-23 19:03:00,
2013-10-23 15:09:00,36.7,34.9,29.79,SSE,162,6.0,11.0,93,0.05,,,0.10,54,Wunderground v.1.15,2013-10-23 19:09:00,
2013-10-23 15:15:00,36.5,34.7,29.79,South,178,6.0,12.0,93,0.05,,,0.10,169,Wunderground v.1.15,2013-10-23 19:15:00,
2013-10-23 15:21:00,36.6,35.0,29.80,SSW,202,8.0,12.0,94,0.04,,,0.10,123,Wunderground v.1.15,2013-10-23 19:21:00,
2013-10-23 15:27:00,36.8,35.2,29.80,SSW,199,8.0,16.0,94,0.00,,,0.11,163,Wunderground v.1.15,2013-10-23 19:27:00,
2013-10-23 15:33:00,37.0,35.2,29.79,SW,225,7.0,7.0,93,0.08,,,0.12,107,Wunderground v.1.15,2013-10-23 19:33:00,
2013-10-23 15:39:00,37.4,35.6,29.79,SW,233,3.0,7.0,93,0.08,,,0.12,47,Wunderground v.1.15,2013-10-23 19:39:00,
2013-10-23 15:44:00,37.7,35.9,29.79,SSW,195,3.0,5.0,93,0.05,,,0.12,70,Wunderground v.1.15,2013-10-23 19:44:00,
2013-10-23 15:50:00,38.0,35.9,29.79,SW,215,3.0,3.0,92,0.00,,,0.12,56,Wunderground v.1.15,2013-10-23 19:50:00,
2013-10-23 15:56:00,38.4,36.0,29.79,SSW,199,4.0,6.0,91,0.00,,,0.13,76,Wunderground v.1.15,2013-10-23 19:56:00,
2013-10-23 16:01:00,38.5,35.8,29.79,SW,215,4.0,5.0,90,0.00,,,0.13,49,Wunderground v.1.15,2013-10-23 20:01:00,
2013-10-23 16:06:00,38.5,35.5,29.79,South,182,3.0,8.0,89,0.05,,,0.13,39,Wunderground v.1.15,2013-10-23 20:06:00,
2013-10-23 16:12:00,38.6,35.6,29.79,SW,221,2.0,2.0,89,0.05,,,0.14,86,Wunderground v.1.15,2013-10-23 20:12:00,
2013-10-23 16:18:00,38.7,35.5,29.79,SSW,201,2.0,6.0,88,0.05,,,0.14,35,Wunderground v.1.15,2013-10-23 20:18:00,
2013-10-23 16:23:00,38.7,35.5,29.79,South,186,2.0,8.0,88,0.00,,,0.14,51,Wunderground v.1.15,2013-10-23 20:23:00,
2013-10-23 16:29:00,38.7,34.9,29.79,SW,222,5.0,10.0,86,0.00,,,0.14,46,Wunderground v.1.15,2013-10-23 20:29:00,
2013-10-23 16:35:00,38.6,34.5,29.80,South,170,7.0,9.0,85,0.00,,,0.14,47,Wunderground v.1.15,2013-10-23 20:35:00,
2013-10-23 16:40:00,38.6,34.8,29.79,South,180,8.0,9.0,86,0.00,,,0.15,93,Wunderground v.1.15,2013-10-23 20:40:00,
2013-10-23 16:46:00,39.0,35.5,29.80,South,188,7.0,10.0,87,0.00,,,0.15,62,Wunderground v.1.15,2013-10-23 20:46:00,
2013-10-23 16:51:00,38.8,35.3,29.80,WSW,246,6.0,6.0,87,0.05,,,0.16,28,Wunderground v.1.15,2013-10-23 20:51:00,
2013-10-23 16:57:00,38.4,34.9,29.80,SSW,202,4.0,6.0,87,0.05,,,0.16,19,Wunderground v.1.15,2013-10-23 20:57:00,
2013-10-23 17:03:00,38.0,34.5,29.80,SW,226,4.0,5.0,87,0.04,,,0.16,26,Wunderground v.1.15,2013-10-23 21:03:00,
2013-10-23 17:09:00,37.8,34.6,29.80,SSW,197,2.0,5.0,88,0.00,,,0.16,14,Wunderground v.1.15,2013-10-23 21:09:00,
2013-10-23 17:14:00,37.7,34.5,29.80,SSW,202,1.0,6.0,88,0.00,,,0.16,18,Wunderground v.1.15,2013-10-23 21:14:00,
2013-10-23 17:20:00,37.7,34.8,29.80,South,182,4.0,5.0,89,0.00,,,0.16,11,Wunderground v.1.15,2013-10-23 21:20:00,
2013-10-23 17:25:00,37.5,34.6,29.81,SSE,165,4.0,8.0,89,0.00,,,0.16,5,Wunderground v.1.15,2013-10-23 21:25:00,
2013-10-23 17:31:00,37.1,34.4,29.81,SSW,200,6.0,7.0,90,0.00,,,0.17,5,Wunderground v.1.15,2013-10-23 21:31:00,
2013-10-23 17:36:00,36.4,33.7,29.81,SSW,209,8.0,8.0,90,0.00,,,0.17,32,Wunderground v.1.15,2013-10-23 21:36:00,
2013-10-23 17:42:00,36.2,33.8,29.80,SW,215,4.0,7.0,91,0.06,,,0.18,28,Wunderground v.1.15,2013-10-23 21:42:00,
2013-10-23 17:48:00,36.1,34.0,29.80,SW,217,2.0,7.0,92,0.05,,,0.18,11,Wunderground v.1.15,2013-10-23 21:48:00,
2013-10-23 17:53:00,36.1,34.0,29.80,SSW,194,1.0,5.0,92,0.00,,,0.18,9,Wunderground v.1.15,2013-10-23 21:53:00,
2013-10-23 17:59:00,36.3,34.5,29.80,South,188,3.0,5.0,93,0.00,,,0.18,7,Wunderground v.1.15,2013-10-23 21:59:00,
2013-10-23 18:04:00,36.5,34.7,29.80,South,187,3.0,8.0,93,0.00,,,0.18,7,Wunderground v.1.15,2013-10-23 22:04:00,
2013-10-23 18:10:00,36.7,35.1,29.80,SSW,202,4.0,8.0,94,0.00,,,0.18,7,Wunderground v.1.15,2013-10-23 22:10:00,
2013-10-23 18:16:00,36.8,35.2,29.80,SSW,194,7.0,12.0,94,0.00,,,0.18,5,Wunderground v.1.15,2013-10-23 22:16:00,
2013-10-23 18:21:00,36.9,35.3,29.81,South,173,7.0,10.0,94,0.00,,,0.19,9,Wunderground v.1.15,2013-10-23 22:21:00,
2013-10-23 18:27:00,37.0,35.4,29.81,South,185,6.0,10.0,94,0.00,,,0.19,11,Wunderground v.1.15,2013-10-23 22:27:00,
2013-10-23 18:33:00,37.0,35.4,29.81,South,187,4.0,7.0,94,0.04,,,0.20,0,Wunderground v.1.15,2013-10-23 22:33:00,
2013-10-23 18:39:00,36.9,35.3,29.81,South,178,5.0,7.0,94,0.04,,,0.20,0,Wunderground v.1.15,2013-10-23 22:39:00,
2013-10-23 18:44:00,36.9,35.3,29.81,South,190,4.0,6.0,94,0.04,,,0.20,0,Wunderground v.1.15,2013-10-23 22:44:00,
2013-10-23 18:50:00,36.9,35.3,29.81,SSW,201,4.0,15.0,94,0.00,,,0.20,0,Wunderground v.1.15,2013-10-23 22:50:00,
2013-10-23 18:55:00,36.6,34.8,29.81,South,190,7.0,15.0,93,0.00,,,0.20,0,Wunderground v.1.15,2013-10-23 22:55:00,
2013-10-23 19:01:00,36.5,34.9,29.81,SSW,196,6.0,9.0,94,0.00,,,0.21,0,Wunderground v.1.15,2013-10-23 23:01:00,
2013-10-23 19:07:00,36.6,35.0,29.81,South,190,4.0,9.0,94,0.00,,,0.21,0,Wunderground v.1.15,2013-10-23 23:07:00,
2013-10-23 19:13:00,36.8,35.2,29.81,SSW,195,3.0,6.0,94,0.04,,,0.21,0,Wunderground v.1.15,2013-10-23 23:13:00,
2013-10-23 19:18:00,36.9,35.3,29.82,SW,219,3.0,9.0,94,0.04,,,0.22,0,Wunderground v.1.15,2013-10-23 23:18:00,
2013-10-23 19:24:00,36.9,35.3,29.82,SW,227,6.0,9.0,94,0.04,,,0.22,0,Wunderground v.1.15,2013-10-23 23:24:00,
2013-10-23 19:30:00,36.6,35.0,29.82,SSW,204,5.0,5.0,94,0.00,,,0.22,0,Wunderground v.1.15,2013-10-23 23:30:00,
2013-10-23 19:35:00,36.2,34.4,29.82,SSW,196,6.0,13.0,93,0.00,,,0.23,0,Wunderground v.1.15,2013-10-23 23:35:00,
2013-10-23 19:41:00,36.0,34.4,29.81,South,169,7.0,7.0,94,0.14,,,0.24,0,Wunderground v.1.15,2013-10-23 23:41:00,
2013-10-23 19:47:00,36.0,34.4,29.81,South,187,5.0,7.0,94,0.06,,,0.24,0,Wunderground v.1.15,2013-10-23 23:47:00,
2013-10-23 19:52:00,36.2,34.9,29.81,SSW,200,3.0,8.0,95,0.04,,,0.25,0,Wunderground v.1.15,2013-10-23 23:52:00,
2013-10-23 19:58:00,36.4,35.1,29.81,SSW,211,4.0,8.0,95,0.04,,,0.25,0,Wunderground v.1.15,2013-10-23 23:58:00,
2013-10-23 20:03:00,36.7,35.4,29.82,South,191,4.0,6.0,95,0.04,,,0.25,0,Wunderground v.1.15,2013-10-24 00:03:00,
2013-10-23 20:09:00,36.9,35.6,29.82,South,190,6.0,12.0,95,0.05,,,0.26,0,Wunderground v.1.15,2013-10-24 00:09:00,
2013-10-23 20:15:00,36.9,35.6,29.82,SW,218,7.0,7.0,95,0.05,,,0.26,0,Wunderground v.1.15,2013-10-24 00:15:00,
2013-10-23 20:20:00,36.8,35.2,29.82,South,187,5.0,5.0,94,0.04,,,0.26,0,Wunderground v.1.15,2013-10-24 00:20:00,
2013-10-23 20:26:00,36.9,35.3,29.82,South,191,3.0,5.0,94,0.00,,,0.27,0,Wunderground v.1.15,2013-10-24 00:26:00,
2013-10-23 20:32:00,36.8,35.2,29.81,South,175,5.0,8.0,94,0.00,,,0.27,0,Wunderground v.1.15,2013-10-24 00:32:00,
2013-10-23 20:37:00,36.8,35.2,29.81,South,183,6.0,9.0,94,0.04,,,0.27,0,Wunderground v.1.15,2013-10-24 00:37:00,
2013-10-23 20:43:00,37.0,35.7,29.81,South,178,7.0,14.0,95,0.04,,,0.28,0,Wunderground v.1.15,2013-10-24 00:43:00,
2013-10-23 20:49:00,37.2,35.9,29.80,South,178,8.0,14.0,95,0.04,,,0.28,0,Wunderground v.1.15,2013-10-24 00:49:00,
2013-10-23 20:55:00,37.5,35.9,29.81,SSE,167,8.0,13.0,94,0.00,,,0.28,0,Wunderground v.1.15,2013-10-24 00:55:00,
2013-10-23 21:00:00,37.5,35.9,29.81,SSW,211,6.0,6.0,94,0.00,,,0.28,0,Wunderground v.1.15,2013-10-24 01:00:00,
2013-10-23 21:06:00,37.5,35.7,29.81,South,186,3.0,6.0,93,0.00,,,0.28,0,Wunderground v.1.15,2013-10-24 01:06:00,
2013-10-23 21:12:00,37.4,35.6,29.81,South,190,3.0,8.0,93,0.00,,,0.28,0,Wunderground v.1.15,2013-10-24 01:12:00,
2013-10-23 21:17:00,37.2,35.4,29.81,SSW,209,5.0,9.0,93,0.00,,,0.29,0,Wunderground v.1.15,2013-10-24 01:17:00,
2013-10-23 21:23:00,37.2,35.6,29.81,SSW,200,6.0,10.0,94,0.00,,,0.29,0,Wunderground v.1.15,2013-10-24 01:23:00,
2013-10-23 21:29:00,37.4,35.8,29.82,WSW,250,6.0,10.0,94,0.00,,,0.29,0,Wunderground v.1.15,2013-10-24 01:29:00,
2013-10-23 21:35:00,37.3,35.5,29.81,South,184,6.0,14.0,93,0.04,,,0.30,0,Wunderground v.1.15,2013-10-24 01:35:00,
2013-10-23 21:40:00,36.9,35.1,29.81,SW,236,6.0,6.0,93,0.04,,,0.30,0,Wunderground v.1.15,2013-10-24 01:40:00,
2013-10-23 21:46:00,36.9,35.1,29.81,South,184,6.0,12.0,93,0.04,,,0.30,0,Wunderground v.1.15,2013-10-24 01:46:00,
2013-10-23 21:52:00,37.0,35.4,29.80,South,182,7.0,10.0,94,0.00,,,0.30,0,Wunderground v.1.15,2013-10-24 01:52:00,
2013-10-23 21:58:00,37.1,35.5,29.81,NW,323,4.0,10.0,94,0.00,,,0.31,0,Wunderground v.1.15,2013-10-24 01:58:00,
2013-10-23 22:03:00,37.1,35.5,29.81,WNW,288,1.0,2.0,94,0.00,,,0.31,0,Wunderground v.1.15,2013-10-24 02:03:00,
2013-10-23 22:09:00,37.1,35.5,29.81,SSW,202,0.0,2.0,94,0.00,,,0.31,0,Wunderground v.1.15,2013-10-24 02:09:00,
2013-10-23 22:15:00,37.0,35.4,29.81,North,5,0.0,1.0,94,0.00,,,0.31,0,Wunderground v.1.15,2013-10-24 02:15:00,
2013-10-23 22:20:00,37.0,35.4,29.81,West,277,0.0,1.0,94,0.00,,,0.32,0,Wunderground v.1.15,2013-10-24 02:20:00,
2013-10-23 22:26:00,37.0,35.4,29.81,WSW,242,1.0,4.0,94,0.00,,,0.32,0,Wunderground v.1.15,2013-10-24 02:26:00,
2013-10-23 22:32:00,37.0,35.4,29.81,South,186,2.0,12.0,94,0.00,,,0.32,0,Wunderground v.1.15,2013-10-24 02:32:00,
2013-10-23 22:37:00,37.1,35.5,29.81,SW,219,3.0,12.0,94,0.00,,,0.32,0,Wunderground v.1.15,2013-10-24 02:37:00,
2013-10-23 22:43:00,37.2,35.6,29.81,SSW,196,5.0,7.0,94,0.00,,,0.32,0,Wunderground v.1.15,2013-10-24 02:43:00,
2013-10-23 22:49:00,37.3,35.7,29.81,SSW,194,5.0,12.0,94,0.00,,,0.32,0,Wunderground v.1.15,2013-10-24 02:49:00,
2013-10-23 22:54:00,37.5,35.9,29.81,SSW,209,5.0,12.0,94,0.00,,,0.33,0,Wunderground v.1.15,2013-10-24 02:54:00,
2013-10-23 23:00:00,37.6,36.0,29.80,South,188,4.0,4.0,94,0.00,,,0.33,0,Wunderground v.1.15,2013-10-24 03:00:00,
2013-10-23 23:06:00,37.8,36.5,29.81,South,180,4.0,11.0,95,0.00,,,0.33,0,Wunderground v.1.15,2013-10-24 03:06:00,
2013-10-23 23:12:00,37.8,36.5,29.80,SSW,213,4.0,7.0,95,0.00,,,0.33,0,Wunderground v.1.15,2013-10-24 03:12:00,
2013-10-23 23:17:00,37.7,36.4,29.81,SSW,209,4.0,7.0,95,0.00,,,0.34,0,Wunderground v.1.15,2013-10-24 03:17:00,
2013-10-23 23:23:00,37.7,36.4,29.81,South,182,5.0,7.0,95,0.00,,,0.34,0,Wunderground v.1.15,2013-10-24 03:23:00,
2013-10-23 23:28:00,37.6,36.0,29.81,SSW,192,4.0,7.0,94,0.00,,,0.34,0,Wunderground v.1.15,2013-10-24 03:28:00,
2013-10-23 23:34:00,37.6,36.3,29.81,West,260,4.0,8.0,95,0.00,,,0.34,0,Wunderground v.1.15,2013-10-24 03:34:00,
2013-10-23 23:40:00,37.2,35.6,29.81,SW,215,2.0,5.0,94,0.00,,,0.34,0,Wunderground v.1.15,2013-10-24 03:40:00,
2013-10-23 23:45:00,36.9,35.3,29.81,SW,224,1.0,7.0,94,0.13,,,0.36,0,Wunderground v.1.15,2013-10-24 03:45:00,
2013-10-23 23:51:00,36.6,35.0,29.81,South,185,2.0,2.0,94,0.10,,,0.36,0,Wunderground v.1.15,2013-10-24 03:51:00,
2013-10-23 23:57:00,36.4,34.8,29.80,SSW,202,2.0,4.0,94,0.05,,,0.37,0,Wunderground v.1.15,2013-10-24 03:57:00,